Meteo Giornale » Osservazioni meteo Porto Rico » Luisoz Marin
ore: 17:56 - Osservazioni Meteo Luisoz Marin
Lat. 18° 27' N Lon. 66° 0' W Alt. 3 metri s.l.m.
29 °C
Molto Nuvoloso
Temp. 24 Ore
27 °C
34 °C
Est/Sud-Est
11.1 Km/h
Dew point 23 °C
Umidità 70 %
Visibilità 10 Km
Il sole sorge alle ore 06:09
Il sole tramonta alle ore 18:39
| Data e Ora | Cielo e Fenomeni | T °C | DP °C | Um. % | Pres. hPa | Vis. km | Vento km/h | |
|---|---|---|---|---|---|---|---|---|
| Oggi h: 17:56 | Molto Nuvoloso | 29 | 23 | 70 | 1015 | 10 | E/SE 11.1 | |
| Oggi h: 16:56 | Molto Nuvoloso | 28 | 24 | 78 | 1015 | 10 | E/SE 13 | |
| Oggi h: 15:56 | Molto Nuvoloso | 27 | 24 | 83 | 1015 | 10 | N 5.5 | |
| Oggi h: 15:30 | Temporale | 28 | 24 | 78 | 1015 | 14 | N 11.1 | |
| Oggi h: 14:56 | Pioggia | 28 | 24 | 78 | 1015 | 13 | N/NE 9.3 | |
| Oggi h: 13:56 | Molto Nuvoloso | 34 | 22 | 49 | 1015 | 10 | S/SE 14.8 | |
| Oggi h: 12:56 | Molto Nuvoloso | 33 | 22 | 52 | 1016 | 10 | S/SE 18.5 | |
| Oggi h: 11:56 | Molto Nuvoloso | 33 | 22 | 52 | 1016 | 10 | SE 16.7 | |
| Oggi h: 10:56 | Molto Nuvoloso | 32 | 23 | 59 | 1016 | 10 | S/SE 16.7 | |
| Oggi h: 09:56 | Molto Nuvoloso | 31 | 23 | 62 | 1016 | 10 | S 18.5 | |
| Oggi h: 08:56 | Molto Nuvoloso | 31 | 23 | 62 | 1016 | 10 | SE 13 | |
| Oggi h: 07:56 | Molto Nuvoloso | 29 | 23 | 70 | 1015 | 10 | E/SE 14.8 | |
| Oggi h: 06:56 | Molto Nuvoloso | 28 | 24 | 78 | 1014 | 10 | S/SE 14.8 | |
| Oggi h: 05:56 | Molto Nuvoloso | 28 | 23 | 74 | 1014 | 10 | S/SE 14.8 | |
| Oggi h: 04:56 | Molto Nuvoloso | 27 | 23 | 78 | 1014 | 10 | E 7.4 | |
| Oggi h: 03:56 | Molto Nuvoloso | 27 | 23 | 78 | 1014 | 10 | S/SE 13 | |
| Oggi h: 02:56 | Molto Nuvoloso | 27 | 23 | 78 | 1014 | 10 | SE 9.3 | |
| Oggi h: 01:56 | Molto Nuvoloso | 28 | 23 | 74 | 1014 | 10 | S/SE 13 | |
| Oggi h: 00:56 | Molto Nuvoloso | 28 | 23 | 74 | 1015 | 10 | S/SE 7.4 | |
| Ieri h: 23:56 | Nuvoloso | 27 | 24 | 83 | 1015 | 10 | E 7.4 | |
| Ieri h: 22:56 | Nuvoloso | 27 | 24 | 83 | 1015 | 10 | S/SE 7.4 | |
| Ieri h: 21:56 | Poco Nuvoloso | 28 | 24 | 78 | 1015 | 10 | E 14.8 | |
| Ieri h: 20:56 | Sereno | 27 | 23 | 78 | 1015 | 10 | E 13 | |
| Ieri h: 19:56 | Poco Nuvoloso | 27 | 23 | 78 | 1014 | 10 | N 5.5 | |
| Ieri h: 18:56 | Nuvoloso | 28 | 23 | 74 | 1014 | 10 | SE 7.4 | |



